Flag for U.S.A. Weather past 2 weeks in Raleigh, North Carolina, U.S.A.

Now
47 °F

Passing clouds.


Feels Like: 47 °F
Forecast: 46 / 68 °F
Wind: No wind

Location: Raleigh-Durham International Airport

Current Time: Oct 24, 2014 at 4:56:03 AM

Latest Report: Oct 24, 2014 at 3:51 AM


Visibility: 10 mi

Pressure: 30.00 "Hg

Humidity: 80%

Dew point: 41 °F

Location of RaleighLocation

Historic Weather in Raleigh — Graph

°F

Raleigh temperature yesterday

Maximum temperature yesterday: 69 °F (at 3:51 PM)
Minimum temperature yesterday: 43 °F (at 7:51 AM)
Average temperature yesterday: 56 °F

Past Weeks' High & Low Weather Summary

 TemperatureHumidityPressure
High86 °F (Oct 11, 3:51 PM)94% (Oct 15, 7:51 AM)30.25 "Hg (Oct 15, 7:51 AM)
Low42 °F (Oct 20, 3:51 AM)34% (Oct 9, 3:51 PM)29.75 "Hg (Oct 18, 3:51 AM)
Average63 °F71%29.99 "Hg
* Reported Oct 9 3:51 AM — Oct 24 3:51 AM, Raleigh, Weather by CustomWeather, © 2014

Note: Actual official high and low records may vary slightly from our data, if they occured in-between our weather recording intervals... More about our weather records

Advertising

Raleigh weather history for previous 24 hours

 ConditionsComfort  
Time TempWeatherWind HumidityBarometerVisibility
3:51 AM
Oct 24
47 °FPassing clouds.No wind80%30.00 "Hg10 mi
2:51 AM49 °FPassing clouds.5 mph74%29.99 "Hg10 mi
1:51 AM51 °FPassing clouds.5 mph69%30.00 "Hg10 mi
12:51 AM52 °FPassing clouds.3 mph66%30.01 "Hg10 mi
11:51 PM
Oct 23
54 °FPassing clouds.No wind62%30.02 "Hg10 mi
10:51 PM56 °FClear.5 mph58%30.02 "Hg10 mi
9:51 PM58 °FPassing clouds.5 mph54%30.01 "Hg10 mi
8:51 PM59 °FPassing clouds.5 mph54%29.99 "Hg10 mi
7:51 PM61 °FPassing clouds.5 mph52%29.97 "Hg10 mi
6:51 PM63 °FPassing clouds.5 mph48%29.95 "Hg10 mi
5:51 PM67 °FSunny.3 mph44%29.93 "Hg10 mi
4:51 PM69 °FSunny.8 mph41%29.92 "Hg10 mi
3:51 PM69 °FSunny.8 mph41%29.92 "Hg10 mi
2:51 PM68 °FSunny.6 mph40%29.93 "Hg10 mi
1:51 PM66 °FSunny.8 mph42%29.96 "Hg10 mi
12:51 PM64 °FSunny.7 mph45%29.99 "Hg10 mi
11:51 AM62 °FSunny.3 mph48%30.02 "Hg10 mi
10:51 AM58 °FSunny.6 mph54%30.02 "Hg10 mi
9:51 AM55 °FSunny.10 mph57%30.02 "Hg10 mi
8:51 AM51 °FSunny.5 mph66%30.02 "Hg10 mi
7:51 AM43 °FClear.No wind82%30.02 "Hg10 mi
6:51 AM45 °FClear.No wind80%30.02 "Hg10 mi
5:51 AM46 °FClear.3 mph77%30.00 "Hg10 mi
4:51 AM46 °FClear.No wind79%30.00 "Hg10 mi
Weather by CustomWeather, © 2014

See weather overviewHow to use our weather pages